(504204) = 2006 UY14

Discovered at Mount Lemmon on 2006-09-30 by Mt. Lemmon Survey.

Orbit

Orbit type: Main Belt

Note: WebGL enabled browser required.

epoch2023-09-13.0
epoch JD2460200.5
perihelion date2022-04-13.24509
perihelion JD2459682.74509
argument of perihelion (°)280.57467
ascending node (°)49.51992
inclination (°)27.08668
eccentricity0.1629230
perihelion distance (AU)2.5898683
Tisserand w.r.t. Jupiter3.0
ΔV w.r.t. Earth (km/sec)13.1
semimajor axis (AU)3.0939427
mean anomaly (°)93.76908
mean daily motion (°/day)0.18110710
aphelion distance (AU)3.598
period (years)5.44
P-vector [x]0.78483949
P-vector [y]-0.21516331
P-vector [z]-0.58114690
Q-vector [x]0.51387977
Q-vector [y]0.75009121
Q-vector [z]0.41628207
absolute magnitude15.93
phase slope0.15
uncertainty0
referenceMPEC 2024-B63
observations used204
oppositions10
arc length (days)10258
first opposition used1995
last opposition used2024
residual rms (arc-secs)0.75
perturbers coarse indicatorM-v
perturbers precise indicator003Ek
first observation date used1995-12-19.0
last observation date used2024-01-19.0
computer nameMPCLINUX
JD of orbit computation2458055.411933
perihelion JD uncertainty (days)8.1665E-04
argument of perihelion uncertainty (°)1.4617E-04
ascending node uncertainty (°)1.2030E-05
inclination uncertainty (°)2.4812E-05
eccentricity uncertainty 1.4542E-07
perihelion distance uncertainty (AU)4.4652E-07
Minimum Orbit Intersection Distances (in AU)
for orbit epoch: 2460200.5, reference: E2024-B63
Mercury2.20905
Venus1.93911
Earth1.73189
Mars1.37012
Jupiter2.04165
Saturn6.02751
Uranus15.2163
Neptune26.8864

Observations

207 total observations over interval: 1995 12 19.27846 – 2024 01 19.312070
These data are available for download (format description).

Date (UT) J2000 RA J2000 Dec Magn Location Ref
1995 12 19.27846 02 16 41.90 +14 47 59.6   691 – Steward Observatory, Kitt Peak-Spacewatch MPS 401106
1995 12 19.29796 02 16 41.46 +14 48 05.4   691 – Steward Observatory, Kitt Peak-Spacewatch MPS 401106
1995 12 19.31764 02 16 41.06 +14 48 12.0 20.7 V 691 – Steward Observatory, Kitt Peak-Spacewatch MPS 401106
2006 09 30.45625 03 46 35.86 +14 29 05.2 20.2 V G96 – Mt. Lemmon Survey MPS 185678
2006 09 30.46374 03 46 35.68 +14 29 07.6 19.9 V G96 – Mt. Lemmon Survey MPS 185678
2006 09 30.47121 03 46 35.50 +14 29 09.6 19.9 V G96 – Mt. Lemmon Survey MPS 185678
2006 09 30.47865 03 46 35.29 +14 29 11.9 20.2 V G96 – Mt. Lemmon Survey MPS 185678
2006 10 17.14427 03 36 33.83 +15 50 04.7   621 – Bergisch Gladbach MPS 184247
2006 10 17.15192 03 36 33.53 +15 50 06.5   621 – Bergisch Gladbach MPS 184248
2006 10 17.15956 03 36 33.07 +15 50 09.2 21 R 621 – Bergisch Gladbach MPS 184248
2006 10 17.30429 03 36 26.24 +15 50 50.7 20.4 V G96 – Mt. Lemmon Survey MPS 183206
2006 10 17.31107 03 36 25.92 +15 50 52.9 20.5 V G96 – Mt. Lemmon Survey MPS 183206
2006 10 17.31798 03 36 25.52 +15 50 55.3 20.0 V G96 – Mt. Lemmon Survey MPS 183206
2006 10 17.32478 03 36 25.23 +15 50 56.6 20.2 V G96 – Mt. Lemmon Survey MPS 183206
2006 10 18.39633 03 35 31.63 +15 55 59.9 20.5 V 691 – Steward Observatory, Kitt Peak-Spacewatch MPS 183206
2006 10 18.41373 03 35 30.72 +15 56 04.8 20.6 V 691 – Steward Observatory, Kitt Peak-Spacewatch MPS 183206
2006 10 18.43113 03 35 29.83 +15 56 09.4 20.6 V 691 – Steward Observatory, Kitt Peak-Spacewatch MPS 183206
2006 10 20.39354 03 33 47.86 +16 05 19.0 20.2 V 691 – Steward Observatory, Kitt Peak-Spacewatch MPS 183206
2006 10 20.41096 03 33 46.89 +16 05 23.8 20.4 V 691 – Steward Observatory, Kitt Peak-Spacewatch MPS 183206
2006 10 20.42837 03 33 45.97 +16 05 28.6 20.4 V 691 – Steward Observatory, Kitt Peak-Spacewatch MPS 183206
2006 10 28.29440 03 26 10.53 +16 41 12.0 20.2 V G96 – Mt. Lemmon Survey MPS 185678
2006 10 28.30414 03 26 09.92 +16 41 14.5 20.1 V G96 – Mt. Lemmon Survey MPS 185678
2006 10 28.31389 03 26 09.31 +16 41 16.8 19.9 V G96 – Mt. Lemmon Survey MPS 185678
2006 10 28.32373 03 26 08.66 +16 41 19.6 20.0 V G96 – Mt. Lemmon Survey MPS 185678
2006 11 01.38574 03 21 49.82 +16 59 05.2 20.3 V 691 – Steward Observatory, Kitt Peak-Spacewatch MPS 185678
2006 11 01.40319 03 21 48.66 +16 59 09.7 20.1 V 691 – Steward Observatory, Kitt Peak-Spacewatch MPS 185678
2006 11 01.42059 03 21 47.49 +16 59 14.1 20.2 V 691 – Steward Observatory, Kitt Peak-Spacewatch MPS 185678
2006 11 11.29094 03 10 42.16 +17 40 06.2 19.5 V 703 – Catalina Sky Survey MPS 187145
2006 11 11.30201 03 10 41.52 +17 40 09.2 19.7 V 703 – Catalina Sky Survey MPS 187145
2006 11 11.31308 03 10 40.62 +17 40 13.3 19.7 V 703 – Catalina Sky Survey MPS 187145
2006 11 11.32098 03 10 40.11 +17 40 13.9 19.6 V G96 – Mt. Lemmon Survey MPS 187145
2006 11 11.32412 03 10 39.79 +17 40 15.2 19.4 V 703 – Catalina Sky Survey MPS 187145
2006 11 11.32617 03 10 39.75 +17 40 14.8 19.6 V G96 – Mt. Lemmon Survey MPS 187145
2006 11 11.33112 03 10 39.43 +17 40 16.2 19.7 V G96 – Mt. Lemmon Survey MPS 187145
2006 11 11.33604 03 10 39.07 +17 40 17.4 19.5 V G96 – Mt. Lemmon Survey MPS 187145
2006 11 12.24910 03 09 36.57 +17 43 54.5 19.2 V 703 – Catalina Sky Survey MPS 187145
2006 11 12.25470 03 09 36.25 +17 43 55.9 19.8 V 703 – Catalina Sky Survey MPS 187145
2006 11 12.26036 03 09 35.82 +17 43 56.9 19.5 V 703 – Catalina Sky Survey MPS 187145
2006 11 12.26608 03 09 35.49 +17 43 59.0 19.3 V 703 – Catalina Sky Survey MPS 187145
2006 11 17.30483 03 03 51.87 +18 03 25.3 19.9 V 703 – Catalina Sky Survey MPS 187145
2006 11 17.31182 03 03 51.48 +18 03 24.6 18.8 V 703 – Catalina Sky Survey MPS 187145
2006 11 17.31882 03 03 50.86 +18 03 27.2 19.9 V 703 – Catalina Sky Survey MPS 187145
2006 11 17.32587 03 03 50.43 +18 03 29.1 20.2 V 703 – Catalina Sky Survey MPS 187145
2009 03 18.40207 13 00 27.68 +24 45 19.4 21.0 V G96 – Mt. Lemmon Survey MPS 444898
2009 03 18.41025 13 00 27.28 +24 45 21.6 20.3 V G96 – Mt. Lemmon Survey MPS 444898
2009 03 18.42693 13 00 26.38 +24 45 24.2 20.9 V G96 – Mt. Lemmon Survey MPS 444898
2010 02 28.559002 16 35 02.093 -23 12 25.02   C51 – WISE MPS 904583
2010 02 28.691307 16 35 07.790 -23 13 18.52   C51 – WISE MPS 904583
2010 02 28.757522 16 35 10.594 -23 13 47.21   C51 – WISE MPS 904583
2010 02 28.823611 16 35 13.476 -23 14 13.16   C51 – WISE MPS 904583
2010 03 01.154435 16 35 27.329 -23 16 30.68   C51 – WISE MPS 904583
2015 03 21.52780 14 50 36.340 -02 33 54.84 21.0 w F51 – Pan-STARRS 1, Haleakala MPS 592368
2015 03 21.54070 14 50 35.956 -02 33 54.63 21.1 w F51 – Pan-STARRS 1, Haleakala MPS 592368
2015 03 21.55341 14 50 35.581 -02 33 54.82 21.0 w F51 – Pan-STARRS 1, Haleakala MPS 592368
2015 03 21.56614 14 50 35.211 -02 33 55.01 21.0 w F51 – Pan-STARRS 1, Haleakala MPS 592368
2015 04 20.43753 14 28 24.422 -02 40 30.33 20.6 w F51 – Pan-STARRS 1, Haleakala MPS 600706
2015 04 20.45020 14 28 23.671 -02 40 30.82 20.6 w F51 – Pan-STARRS 1, Haleakala MPS 600706
2015 04 20.47556 14 28 22.191 -02 40 32.07 20.5 w F51 – Pan-STARRS 1, Haleakala MPS 600706
2015 04 21.51109 14 27 22.826 -02 41 24.24 20.5 w F51 – Pan-STARRS 1, Haleakala MPS 600706
2015 04 21.52400 14 27 22.060 -02 41 24.93 20.5 w F51 – Pan-STARRS 1, Haleakala MPS 600706
2015 04 21.53696 14 27 21.311 -02 41 25.50 20.6 w F51 – Pan-STARRS 1, Haleakala MPS 600706
2015 05 24.31712 13 57 13.297 -03 56 18.64 20.8 i F51 – Pan-STARRS 1, Haleakala MPS 608592
2015 05 24.32846 13 57 12.763 -03 56 21.39 20.9 i F51 – Pan-STARRS 1, Haleakala MPS 608592
2015 05 24.33987 13 57 12.236 -03 56 23.88 20.6 i F51 – Pan-STARRS 1, Haleakala MPS 608592
2015 05 24.35121 13 57 11.724 -03 56 26.50 20.7 i F51 – Pan-STARRS 1, Haleakala MPS 608592
2017 08 05.60105 03 49 29.217 +14 13 36.01 21.6 w F51 – Pan-STARRS 1, Haleakala MPS 809307
2017 08 05.60515 03 49 29.431 +14 13 37.84 21.5 w F51 – Pan-STARRS 1, Haleakala MPS 809307
2017 08 05.60928 03 49 29.660 +14 13 39.75 21.5 w F51 – Pan-STARRS 1, Haleakala MPS 809307
2017 08 05.61334 03 49 29.882 +14 13 41.24 21.6 w F51 – Pan-STARRS 1, Haleakala MPS 809307
2017 10 20.45232 04 04 29.24 +22 28 22.8 20.5 G G96 – Mt. Lemmon Survey MPS 826243
2017 10 20.45805 04 04 28.93 +22 28 25.0 21.0 G G96 – Mt. Lemmon Survey MPS 826243
2017 10 20.46375 04 04 28.71 +22 28 27.4 20.5 G G96 – Mt. Lemmon Survey MPS 826243
2017 10 21.38511 04 03 46.47 +22 34 02.4 20.7 G G96 – Mt. Lemmon Survey MPS 828177
2017 10 21.39155 04 03 46.20 +22 34 04.7 20.4 G G96 – Mt. Lemmon Survey MPS 828177
2017 10 21.39783 04 03 45.90 +22 34 07.2 20.4 G G96 – Mt. Lemmon Survey MPS 828177
2017 10 21.40293 04 03 45.64 +22 34 08.9 20.4 G G96 – Mt. Lemmon Survey MPS 828177
2017 10 28.55883 03 57 34.922 +23 16 07.50 20.2 w F51 – Pan-STARRS 1, Haleakala MPS 831762
2017 10 28.57125 03 57 34.200 +23 16 11.69 20.3 w F51 – Pan-STARRS 1, Haleakala MPS 831762
2017 10 28.58363 03 57 33.475 +23 16 15.84 20.2 w F51 – Pan-STARRS 1, Haleakala MPS 831762
2017 10 28.59593 03 57 32.763 +23 16 20.01 20.2 w F51 – Pan-STARRS 1, Haleakala MPS 831762
2017 11 14.27152 03 39 34.71 +24 40 42.3 19.5 G G96 – Mt. Lemmon Survey MPS 839123
2017 11 14.27579 03 39 34.46 +24 40 43.1 19.3 G G96 – Mt. Lemmon Survey MPS 839123
2017 11 14.28007 03 39 34.16 +24 40 44.4 19.7 G G96 – Mt. Lemmon Survey MPS 839123
2017 11 14.28434 03 39 33.85 +24 40 44.9 19.4 G G96 – Mt. Lemmon Survey MPS 839123
2017 11 17.15514 03 36 11.94 +24 52 54.0 19.5 R J04 – ESA Optical Ground Station, Tenerife MPS 842903
2017 11 17.16683 03 36 11.10 +24 52 56.7 19.6 R J04 – ESA Optical Ground Station, Tenerife MPS 842903
2017 11 17.17852 03 36 10.27 +24 52 59.6 19.4 R J04 – ESA Optical Ground Station, Tenerife MPS 842903
2017 11 17.19021 03 36 09.43 +24 53 02.1 19.4 R J04 – ESA Optical Ground Station, Tenerife MPS 842903
2017 11 27.23210 03 24 32.09 +25 29 39.6 20.0 G G96 – Mt. Lemmon Survey MPS 845048
2017 11 27.23728 03 24 31.74 +25 29 40.4 19.9 G G96 – Mt. Lemmon Survey MPS 845048
2017 11 27.24255 03 24 31.36 +25 29 41.6 20.1 G G96 – Mt. Lemmon Survey MPS 845048
2017 11 27.24780 03 24 31.01 +25 29 42.6 20.1 G G96 – Mt. Lemmon Survey MPS 845048
2017 11 27.26209 03 24 30.03 +25 29 45.3 19.9 G G96 – Mt. Lemmon Survey MPS 845048
